Flag for Portugal Weather past 2 weeks in Loures, Portugal

Now
59 °F

Passing clouds.


Feels Like: 59 °F
Forecast: 59 / 80 °F
Wind: 2 mph from Northwest

Location: Lisbon Portela Airport

Current Time: Jul 2, 2015 at 6:36:51 AM

Latest Report: Jul 2, 2015 at 6:00 AM


Visibility: N/A

Pressure: 30.12 "Hg

Humidity: 94%

Dew point: 57 °F

Location of LouresLocation

Historic Weather in Loures — Graph

°F

Loures temperature yesterday

Maximum temperature yesterday: 73 °F (at 11:30 AM)
Minimum temperature yesterday: 63 °F (at 1:00 AM)
Average temperature yesterday: 67 °F

Past Weeks' High & Low Weather Summary

 TemperatureHumidityPressure
High95 °F (Jun 27, 3:00 PM)94% (Jun 22, 12:30 AM)30.18 "Hg (Jun 22, 12:30 AM)
Low59 °F (Jun 24, 5:00 AM)15% (Jun 29, 5:30 PM)29.95 "Hg (Jun 20, 2:30 AM)
Average73 °F58%30.05 "Hg
* Reported Jun 17 5:30 AM — Jul 2 5:30 AM, Loures, Weather by CustomWeather, © 2015

Note: Actual official high and low records may vary slightly from our data, if they occured in-between our weather recording intervals... More about our weather records

Advertising

Loures weather history for previous 24 hours

 ConditionsComfort  
Time TempWeatherWind HumidityBarometerVisibility
5:30 AM
Thu, Jul 2
59 °FPassing clouds.No wind94%30.12 "HgN/A
5:00 AM61 °FPassing clouds.5 mph88%30.12 "HgN/A
4:30 AM61 °FPassing clouds.7 mph88%30.12 "HgN/A
4:00 AM61 °FPassing clouds.5 mph88%30.12 "HgN/A
3:30 AM61 °FPassing clouds.5 mph88%30.12 "HgN/A
3:00 AM61 °FPassing clouds.8 mph88%30.12 "HgN/A
2:30 AM61 °FCool.8 mph88%30.12 "HgN/A
2:00 AM63 °FPassing clouds.7 mph83%30.12 "HgN/A
1:30 AM63 °FPassing clouds.7 mph83%30.12 "HgN/A
1:00 AM63 °FPassing clouds.7 mph83%30.12 "HgN/A
12:30 AM63 °FPassing clouds.8 mph83%30.12 "HgN/A
12:00 AM63 °FPassing clouds.8 mph83%30.09 "HgN/A
11:30 PM
Wed, Jul 1
63 °FPassing clouds.9 mph88%30.09 "HgN/A
11:00 PM64 °FPassing clouds.9 mph83%30.09 "HgN/A
10:00 PM64 °FPassing clouds.6 mph83%30.07 "HgN/A
9:30 PM66 °FPassing clouds.7 mph78%30.07 "HgN/A
9:00 PM66 °FPassing clouds.9 mph83%30.04 "HgN/A
8:30 PM68 °FPassing clouds.12 mph73%30.04 "HgN/A
8:00 PM68 °FScattered clouds.10 mph78%30.04 "HgN/A
7:30 PM68 °FPassing clouds.12 mph78%30.04 "HgN/A
7:00 PM68 °FScattered clouds.10 mph83%30.01 "HgN/A
6:30 PM70 °FScattered clouds.10 mph78%30.01 "HgN/A
6:00 PM72 °FPartly sunny.9 mph73%30.01 "HgN/A
5:30 PM70 °FPartly sunny.6 mph83%30.01 "HgN/A
5:00 PM70 °FPartly sunny.10 mph83%30.01 "HgN/A
4:30 PM72 °FPartly sunny.9 mph78%30.01 "HgN/A
4:00 PM70 °FScattered clouds.10 mph88%30.01 "HgN/A
3:30 PM68 °FRain. Scattered clouds.12 mph94%30.01 "Hg4 mi
3:00 PM70 °FScattered clouds.14 mph83%30.01 "HgN/A
2:30 PM72 °FScattered showers. Passing clouds.14 mph73%30.01 "HgN/A
2:00 PM72 °FPassing clouds.13 mph73%30.01 "HgN/A
1:30 PM73 °FPassing clouds.13 mph69%30.01 "HgN/A
1:00 PM73 °FPassing clouds.10 mph69%30.01 "HgN/A
12:30 PM72 °FPassing clouds.9 mph73%30.01 "HgN/A
12:00 PM73 °FPassing clouds.5 mph69%30.01 "HgN/A
11:30 AM73 °FPassing clouds.3 mph65%30.01 "HgN/A
11:00 AM72 °FScattered clouds.5 mph69%30.01 "HgN/A
10:30 AM72 °FScattered clouds.3 mph69%30.01 "HgN/A
10:00 AM70 °FPartly sunny.3 mph73%30.01 "HgN/A
9:30 AM68 °FPartly sunny.3 mph78%30.01 "HgN/A
9:00 AM68 °FPassing clouds.2 mph78%30.01 "HgN/A
8:30 AM66 °FPassing clouds.3 mph83%30.01 "HgN/A
8:00 AM66 °FPassing clouds.3 mph83%29.98 "HgN/A
7:30 AM64 °FPassing clouds.3 mph88%29.98 "HgN/A
7:00 AM64 °FClear.No wind88%29.98 "HgN/A
6:30 AM63 °FPassing clouds.1 mph88%29.98 "HgN/A
6:00 AM64 °FPassing clouds.No wind83%29.98 "HgN/A
Weather by CustomWeather, © 2015

See weather overviewHow to use our weather pages